Home > Weather > Ufa > Past weeks

Flag for Russia Weather for the Past 2 Weeks in Ufa, Russia

Now
48 °F

Sprinkles. Partly sunny.


Feels Like: 44 °F
Forecast: 47 / 64 °F
Wind: 10 mph from Southeast

Location: Ufa

Current Time: May 3, 2016 at 1:01:06 PM

Latest Report: May 3, 2016 at 12:00 PM


Visibility: N/A

Pressure: 30.18 "Hg

Humidity: 66%

Dew Point: 37 °F

Location of UfaLocation

Historic Weather in Ufa — Graph

°F

Ufa Temperature Yesterday

Maximum temperature yesterday: 61 °F (at 1:30 PM)
Minimum temperature yesterday: 43 °F (at 4:30 AM)
Average temperature yesterday: 52 °F

High & Low Weather Summary for the Past Weeks

 TemperatureHumidityPressure
High68 °F (Apr 19, 2:30 PM)100% (Apr 19, 4:30 AM)30.39 "Hg (Apr 19, 4:30 AM)
Low34 °F (Apr 25, 2:00 AM)22% (Apr 26, 4:30 PM)29.53 "Hg (Apr 20, 8:30 AM)
Average52 °F63%30.02 "Hg
* Reported Apr 18 11:30 AM — May 3 11:30 AM, Ufa, Weather by CustomWeather, © 2016

Note: Actual official high and low records may vary slightly from our data, if they occured in-between our weather recording intervals... More about our weather records

Advertising

Ufa Weather History for the Previous 24 Hours

Scroll right to see more
 ConditionsComfort  
Time TempWeatherWind HumidityBarometerVisibility
11:30 AM
Tue, May 3
50 °FLight rain. Overcast.15 mph71%30.18 "HgN/A
11:00 AM48 °FLight rain. Overcast.13 mph76%30.18 "HgN/A
10:30 AM46 °FLight rain. Overcast.13 mph71%30.18 "HgN/A
10:00 AM48 °FLight rain. Overcast.15 mph66%30.18 "HgN/A
9:30 AM50 °FLight rain. Overcast.13 mph54%30.18 "HgN/A
8:30 AM48 °FLight rain. Overcast.13 mph54%30.18 "HgN/A
8:00 AM48 °FOvercast.10 mph58%30.18 "HgN/A
7:30 AM48 °FOvercast.13 mph54%30.18 "HgN/A
6:30 AM48 °FOvercast.10 mph62%30.18 "HgN/A
6:00 AM48 °FOvercast.10 mph62%30.18 "HgN/A
5:30 AM48 °FLight rain. Overcast.10 mph66%30.18 "HgN/A
5:00 AM48 °FLight rain. Overcast.10 mph66%30.18 "HgN/A
4:30 AM48 °FLight rain. Overcast.10 mph66%30.18 "HgN/A
4:00 AM48 °FLight rain. Overcast.10 mph66%30.18 "HgN/A
3:30 AM48 °FLight rain. Overcast.10 mph66%30.18 "HgN/A
3:00 AM48 °FLight rain. Overcast.8 mph66%30.18 "HgN/A
2:30 AM50 °FLight rain. Overcast.10 mph62%30.18 "HgN/A
2:00 AM50 °FLight rain. Overcast.10 mph71%30.18 "HgN/A
1:30 AM50 °FLight rain. Overcast.10 mph67%30.18 "HgN/A
1:00 AM50 °FLight rain. Overcast.8 mph71%30.18 "HgN/A
12:30 AM50 °FLight rain. Overcast.8 mph67%30.18 "HgN/A
12:00 AM52 °FLight rain. Overcast.8 mph62%30.18 "HgN/A
11:30 PM
Mon, May 2
52 °FLight rain. Overcast.8 mph62%30.18 "HgN/A
11:00 PM52 °FLight rain. Overcast.8 mph62%30.18 "HgN/A
10:30 PM54 °FLight rain. Overcast.8 mph54%30.18 "HgN/A
10:00 PM54 °FPassing clouds.8 mph54%30.18 "HgN/A
9:30 PM54 °FPartly sunny.8 mph54%30.18 "HgN/A
9:00 PM54 °FPartly sunny.10 mph54%30.18 "HgN/A
8:30 PM54 °FPartly sunny.6 mph58%30.15 "HgN/A
8:00 PM55 °FPartly sunny.8 mph55%30.15 "HgN/A
7:30 PM55 °FPartly sunny.13 mph55%30.15 "HgN/A
7:00 PM55 °FPartly sunny.13 mph55%30.15 "HgN/A
6:30 PM55 °FPartly sunny.13 mph55%30.15 "HgN/A
6:00 PM57 °FPartly sunny.13 mph55%30.15 "HgN/A
5:30 PM57 °FPartly sunny.10 mph51%30.15 "HgN/A
5:00 PM59 °FPartly sunny.13 mph51%30.15 "HgN/A
4:30 PM57 °FPartly sunny.13 mph51%30.15 "HgN/A
4:00 PM59 °FPartly sunny.15 mph48%30.12 "HgN/A
3:30 PM59 °FPartly sunny.20 mph48%30.15 "HgN/A
3:00 PM59 °FPartly sunny.20 mph48%30.15 "HgN/A
2:30 PM59 °FPartly sunny.17 mph48%30.12 "HgN/A
2:00 PM61 °FPartly sunny.15 mph45%30.12 "HgN/A
1:30 PM61 °FPartly sunny.13 mph48%30.12 "HgN/A
Weather by CustomWeather, © 2016

See weather overviewHow to use our weather pages